This demonstration page uses our WeatherBlox Daily Observations layout. Learn more.

Left ArrowRight Arrow

41.86663, -103.66717

Hourly Observations for September 9, 2021

Temp ( °F °C ) Dew Point ( °F °C ) Humidity (%) Winds ( mph kmh ) Pressure ( in mb ) Visibility ( mi km ) Precip ( " mm )
12:53 am 00:53 Clear 56 13.3 45 7.2 67 67 E 6 9 30.02 1017 10 16 0.00 0.00
1:53 am 01:53 Clear 56 13.3 45 7.2 67 67 E 8 13 30.01 1016 10 16 0.00 0.00
2:53 am 02:53 Clear 53 11.7 45 7.2 74 74 E 5 7 30.01 1016 10 16 0.00 0.00
3:53 am 03:53 Clear 52 11.1 45 7.2 77 77 E 8 13 30.00 1016 10 16 0.00 0.00
4:53 am 04:53 Clear 53 11.7 46 7.8 77 77 ENE 8 13 29.99 1016 10 16 0.00 0.00
5:53 am 05:53 Clear 52 11.1 45 7.2 77 77 E 8 13 29.99 1016 10 16 0.00 0.00
6:53 am 06:53 Sunny 51 10.6 45 7.2 80 80 ESE 6 9 30.01 1016 10 16 0.00 0.00
7:53 am 07:53 Sunny 54 12.2 47 8.3 77 77 ESE 8 13 30.01 1016 10 16 0.00 0.00
8:53 am 08:53 Sunny 58 14.4 48 8.9 70 70 ESE 6 9 30.01 1016 10 16 0.00 0.00
9:53 am 09:53 Sunny 65 18.3 49 9.4 56 56 Calm 29.99 1016 10 16 0.00 0.00
10:53 am 10:53 Sunny 73 22.8 50 10 44 44 W 5 7 29.97 1015 10 16 0.00 0.00
11:53 am 11:53 Sunny 82 27.8 44 6.7 26 26 WNW 8 13 29.93 1014 10 16 0.00 0.00
12:53 pm 12:53 Sunny 85 29.4 45 7.2 25 25 VRB 5 7 29.91 1013 10 16 0.00 0.00
1:53 pm 13:53 Sunny 93 33.9 42 5.6 17 17 VRB 3 6 29.88 1012 10 16 0.00 0.00
2:53 pm 14:53 Sunny 95 35 40 4.4 15 15 VRB 5 7 29.87 1011 10 16 0.00 0.00
3:53 pm 15:53 Sunny 98 36.7 37 2.8 12 12 W 8 13 29.84 1011 10 16 0.00 0.00
4:53 pm 16:53 Sunny 98 36.7 32 0 10 10 WSW 8 13 29.83 1010 10 16 0.00 0.00
5:53 pm 17:53 Sunny 96 35.6 34 1.1 11 11 W 5 7 29.83 1010 9 14 0.00 0.00
6:53 pm 18:53 Sunny 82 27.8 47 8.3 29 29 NE 10 17 29.88 1012 9 14 0.00 0.00
7:53 pm 19:53 Clear 75 23.9 45 7.2 34 34 ENE 9 15 29.91 1013 10 16 0.00 0.00
8:53 pm 20:53 Clear 72 22.2 48 8.9 43 43 ENE 9 15 29.93 1014 10 16 0.00 0.00
9:53 pm 21:53 Clear 67 19.4 49 9.4 53 53 ENE 6 9 29.95 1014 10 16 0.00 0.00
10:53 pm 22:53 Clear 64 17.8 49 9.4 58 58 E 3 6 29.94 1014 9 14 0.00 0.00
11:53 pm 23:53 Clear 62 16.7 49 9.4 62 62 E 6 9 29.93 1013 10 16 0.00 0.00

Powered by AerisWeather